Regional Weather Roundup
Issued by NWS

Home | Current Version | Previous Version | Text Only | Print | Product List | Glossary Off
Versions: 1 2 3 4 5 6 7 8 9 10 11 12 13 14 15 16 17 18 19 20 21 22 23 24 25 26 27 28 29 30 31 32 33 34 35 36 37 38 39 40 41 42 43 44 45 46 47 48 49 50

170
ASUS45 KBOI 010210
RWRID

IDAHO REGIONAL WEATHER ROUNDUP
NATIONAL WEATHER SERVICE BOISE ID
800 PM MDT SAT APR 30 2016

NOTE: "FAIR" INDICATES FEW OR NO CLOUDS BELOW 12000 FEET
WITH NO SIGNIFICANT WEATHER AND/OR OBSTRUCTIONS TO VISIBILITY

IDZ012-014-010300-
SOUTHWEST IDAHO


CITY           SKY/WX    TMP DP  RH WIND       PRES   REMARKS
BOISE          CLEAR     62  35  36 NW17G25   30.02R
CALDWELL       CLEAR     58  37  45 NW20      30.05R
MOUNTAIN HOME  CLOUDY    57  45  62 E18G26    30.04R
$$

IDZ016-017-010300-
SOUTHCENTRAL IDAHO


CITY           SKY/WX    TMP DP  RH WIND       PRES   REMARKS
BURLEY         CLOUDY    50  43  77 W5        30.04S
JEROME         CLOUDY    53  37  54 CALM      30.05S
TWIN FALLS     LGT RAIN  52  39  61 N5        30.06R
$$

IDZ019>023-010300-
SOUTHEAST IDAHO


CITY           SKY/WX    TMP DP  RH WIND       PRES   REMARKS
IDAHO FALLS    CLOUDY    54  33  45 NW15      30.04R
POCATELLO      CLOUDY    51  42  71 E13       30.05R
REXBURG        CLOUDY    54  29  38 N14G22    30.04R
$$

IDZ006-010-011-018-031-032-010300-
CENTRAL IDAHO MOUNTAINS


CITY           SKY/WX    TMP DP  RH WIND       PRES   REMARKS
MCCALL         MOCLDY    49  31  49 N14       30.10S
STANLEY          N/A     46  29  51 NW5       30.12R
SALMON         CLOUDY    48  37  66 CALM      30.17R
CHALLIS        CLOUDY    50  32  50 N14       30.13R
$$

IDZ002-004-006-007-026-010300-
NORTHERN IDAHO


CITY           SKY/WX    TMP DP  RH WIND       PRES   REMARKS
LEWISTON       CLEAR     62  45  53 W3        30.20S
LOWELL           N/A     58  46  64 CALM      30.18R
COEUR D`ALENE  CLOUDY    55  46  71 NW5       30.21S
MULLAN PASS    MOCLDY    41  30  65 CALM      30.26S
$$




USA.gov is the U.S. government's official web portal to all federal, state and local government web resources and services.